Retour au catalogue

THORAD DELTA 1 DEB

ActifSSO
NORAD 8174·DEBRIS·🇺🇸 United States

Lancé Nov 15, 1974 depuis Vandenberg Space Force Base

Loading…

Prochains Passages (prochaines 24 heures)

TLE

FraisSource: Space-Track

Époque: Sep 14, 2026, 10:18 UTC

1 08174U 74089AQ  26257.42930656  .00000019  00000-0  40563-3 0  9996
2 08174 101.9650 248.1083 0065307 158.1694   0.5343 12.53457230369415

Suivez THORAD DELTA 1 DEB en temps réel avec AllMySat

Download on the App Store